Caribou, ME

5:08 AM EST on January 23, 2017 (GMT -0500)
Micmac Environmental | | Change Station
Active Advisory: Winter Storm Watch

Elev 634 ft 46.78 °N, 67.99 °W | Updated 53 seconds ago

Overcast
Overcast
23.8 °F
Feels Like 24 °F
N
2.0
Wind Variable Wind from East
Gusts 9.0 mph

Today
High -- | Low -- °F
--% Chance of Precip.
Yesterday
High -- | Low -- °F
Precip. -- in
Pressure 30.19 in
Visibility 10.0 miles
Clouds Overcast 2100 ft
Windchill 24 °F
Dew Point 19 °F
Humidity 82%
Rainfall 0.00 in
Snow Depth Not available.
7:06 AM 4:22 PM
Waning Crescent, 19% visible
METAR KCAR 230954Z AUTO 02004KT 10SM OVC021 M04/M09 A3015 RMK AO2 SLP224 T10441089
Pressure 30.19 in
Visibility 10.0 miles
Clouds Overcast 2100 ft
Windchill 24 °F
Dew Point 19 °F
Humidity 82%
Rainfall 0.00 in
Snow Depth Not available.
7:06 AM 4:22 PM
Waning Crescent, 19% visible
METAR KCAR 230954Z AUTO 02004KT 10SM OVC021 M04/M09 A3015 RMK AO2 SLP224 T10441089

Get Your Daily Forecast Email!

Thanks for signing up!

Be on the lookout for a verification email in your inbox.

You'll start receiving the daily forecast at 8 AM.

×

10-Day Weather Forecast

Almanac

Astronomy

Jan. 23, 2017 Rise Set
Actual Time
Civil Twilight
Nautical Twilight
Astronomical Twilight
Moon
Length of Visible Light
Length of Day
Tomorrow will be .
, % of the Moon is Illuminated

Today's Extremes

State Highs State Lows

Community

WunderPhotos

Upload Photos

1,962,540 photos uploaded!

WunderBlog® & News

Nearby

Air Quality

  Air Quality AQ Index Pollutant
Not available.

Snow Depth

Station Depth Elevation

Earthquake Activity

City Distance Mag. Time & Date
Minimum magnitude displayed is 2.5.

Coastal Water Temperatures

Place Temperature

Stations

Nearby Weather Stations

Station Location Temp. Windchill Dew Point Humidity Wind Precip. Elev Updated Type
                   

Watches & Warnings

Winter Storm Watch
Issued: 4:37 AM EST Jan. 23, 2017 – National Weather Service

... Winter Storm Watch now in effect from Tuesday morning through
Wednesday morning...

* locations... North Woods... portions of the central Highland...
Central Aroostook and the St. John valley.

* Hazard types... snow... sleet and freezing rain

* accumulations... snow accumulation of 6 to 10 inches with
sleet... along with around a tenth of an inch of ice.

* Timing... precipitation will begin Tuesday morning and continue
into Wednesday morning.

* Impacts... potential moderate impact. Expect travel difficulties.
Snow, sleet and a glaze of ice will produce slippery conditions.
Ice may cause a few tree limbs to snap with scattered power
outages possible.

* Winds... northeast 5 to 15 mph with gusts up to 25 mph.

* Temperatures... 26 to 32.

Precautionary/preparedness actions...

A Winter Storm Watch means there is a potential for significant
snow... sleet... or ice accumulations that may impact travel.
Continue to monitor the latest forecasts.